Weather History for Baker, OR

Change the Weather History Date:

Saturday, July 6, 2013

  Actual Average Record
Temperature  
Mean Temperature 60 °F 63 °F  
Max Temperature 81 °F 81 °F 99 °F (1985)
Min Temperature 38 °F 45 °F 35 °F (1986)
Degree Days  
Heating Degree Days 5 3  
Month to date heating degree days 8 23  
Since 1 June heating degree days 204 249  
Since 1 July heating degree days 8 23  
Cooling Degree Days 0 2  
Month to date cooling degree days 37 8  
Year to date cooling degree days 68 26  
Since 1 June cooling degree days 64 24  
Growing Degree Days 10 (Base 50)    
Moisture  
Dew Point 43 °F    
Average Humidity 57    
Maximum Humidity 92    
Minimum Humidity 21    
Precipitation  
Precipitation 0.00 in 0.02 in 0.57 in (2006)
Month to date precipitation 0.00 0.15  
Year to date precipitation 5.63 5.86  
Sea Level Pressure  
Sea Level Pressure 29.86 in    
Wind  
Wind Speed 5 mph (West)    
Max Wind Speed 15 mph    
Max Gust Speed 18 mph    
Visibility 10 miles    
Events      
T = Trace of Precipitation, MM = Missing Value Source: NWS Daily Summary

Daily Weather History Graph

Daily Weather History Graph

Search for Another Location

Airport:

Trip Planner

Search our weather history database for the weather conditions in past years. The results will help you decide how hot, cold, wet, or windy it might be!

Date:

Astronomy

Jul. 06, 2013 Rise Set
Actual Time 5:12 AM PDT 8:39 PM PDT
Civil Twilight 4:35 AM PDT 9:15 PM PDT
Nautical Twilight 3:47 AM PDT 10:03 PM PDT
Astronomical Twilight 2:45 AM PDT 11:05 PM PDT
Moon 4:04 AM PDT (7/6) 7:21 PM PDT (7/6)
Length of Visible Light 16h 40m
Length of Day
15h 27m
Waning Crescent, 2% of the Moon is Illuminated
Jul 6
Waning Crescent
Jul 8
New
Jul 15
First Quarter
Jul 22
Full
Jul 29
Last Quarter

Hourly Weather History & Observations

Time (PDT) Temp. Windchill Dew Point Humidity Pressure Visibility Wind Dir Wind Speed Gust Speed Precip Events Conditions
12:53 AM 46.9 °F - 39.9 °F 77% 29.90 in 10.0 mi Calm Calm - N/A   Clear
1:53 AM 44.1 °F - 39.0 °F 82% 29.89 in 10.0 mi Calm Calm - N/A   Clear
2:53 AM 45.0 °F 41.8 °F 39.9 °F 82% 29.89 in 10.0 mi SW 5.8 mph - N/A   Clear
3:53 AM 43.0 °F 41.3 °F 39.0 °F 86% 29.90 in 10.0 mi South 3.5 mph - N/A   Clear
4:53 AM 41.0 °F 38.0 °F 37.9 °F 89% 29.91 in 10.0 mi SSW 4.6 mph - N/A   Clear
5:53 AM 39.0 °F - 37.0 °F 93% 29.93 in 10.0 mi Calm Calm - N/A   Clear
6:53 AM 48.9 °F - 42.1 °F 77% 29.91 in 10.0 mi Calm Calm - N/A   Clear
7:53 AM 59.0 °F - 44.1 °F 58% 29.91 in 10.0 mi Calm Calm - N/A   Clear
8:53 AM 62.1 °F - 44.1 °F 52% 29.90 in 10.0 mi WNW 4.6 mph - N/A   Clear
9:53 AM 66.9 °F - 44.1 °F 44% 29.89 in 10.0 mi WNW 6.9 mph - N/A   Clear
10:53 AM 70.0 °F - 43.0 °F 38% 29.87 in 10.0 mi West 4.6 mph - N/A   Clear
11:53 AM 73.0 °F - 43.0 °F 34% 29.87 in 10.0 mi Calm Calm - N/A   Clear
12:53 PM 75.0 °F - 42.1 °F 31% 29.86 in 10.0 mi Calm Calm - N/A   Clear
1:53 PM 78.1 °F - 45.0 °F 31% 29.84 in 10.0 mi WNW 10.4 mph - N/A   Clear
2:53 PM 80.1 °F - 37.9 °F 22% 29.82 in 10.0 mi NW 12.7 mph - N/A   Clear
3:53 PM 81.0 °F - 42.1 °F 25% 29.81 in 10.0 mi WNW 12.7 mph - N/A   Clear
4:53 PM 81.0 °F - 42.1 °F 25% 29.80 in 10.0 mi NW 12.7 mph - N/A   Clear
5:53 PM 79.0 °F - 46.9 °F 32% 29.79 in 10.0 mi NW 11.5 mph - N/A   Clear
6:53 PM 75.9 °F - 48.9 °F 38% 29.78 in 10.0 mi NW 11.5 mph - N/A   Clear
7:53 PM 71.1 °F - 48.0 °F 44% 29.79 in 10.0 mi NW 8.1 mph - N/A   Clear
8:53 PM 64.0 °F - 48.9 °F 58% 29.82 in 10.0 mi WNW 9.2 mph - N/A   Clear
9:53 PM 61.0 °F - 46.9 °F 60% 29.84 in 10.0 mi Calm Calm - N/A   Clear
10:53 PM 57.9 °F - 46.0 °F 65% 29.84 in 10.0 mi West 4.6 mph - N/A   Clear
11:53 PM 53.1 °F - 45.0 °F 74% 29.84 in 10.0 mi SSE 3.5 mph - N/A   Clear